| time (UTC) | temp C | wind direction | speed KPH | gust KPH | rain 1hr cm | rain 24hr cm | rain mn cm | humidity % | barometer mb |
| 20260504151029 | 18 | 237 | 6.4 | 16.1 | 0.00 | 0.00 | 0.00 | 43 | 1012.9 |
| 20260504140907 | 16 | 185 | 3.2 | 4.8 | 0.00 | 0.00 | 0.00 | 52 | 1013.2 |
| 20260504130743 | 13 | 165 | 6.4 | 17.7 | 0.00 | 0.00 | 0.00 | 62 | 1013.8 |
| 20260504120135 | 10 | 207 | 6.4 | 9.7 | 0.00 | 0.00 | 0.00 | 74 | 1013.9 |
| 20260504081633 | 8 | 203 | 1.6 | 3.2 | 0.00 | 0.00 | 0.00 | 62 | 1014.0 |
| 20260504080558 | 8 | 200 | 0.0 | 3.2 | 0.00 | 0.00 | 0.00 | 62 | 1014.0 |
| 20260504045647 | 8 | 0.0 | 0.0 | 0.00 | 0.00 | 0.00 | 58 | 1013.8 | |
| 20260504045156 | 8 | 0.0 | 0.0 | 0.00 | 0.00 | 0.00 | 58 | 1014.0 | |
| 20260504044123 | 8 | 0.0 | 1.6 | 0.00 | 0.00 | 0.00 | 58 | 1013.9 | |
| 20260504043109 | 8 | 212 | 1.6 | 1.6 | 0.00 | 0.00 | 0.00 | 57 | 1013.9 |
| 20260504042056 | 8 | 0.0 | 0.0 | 0.00 | 0.00 | 0.00 | 58 | 1013.7 | |
| 20260504041041 | 8 | 210 | 0.0 | 1.6 | 0.00 | 0.00 | 0.00 | 58 | 1013.5 |
| 20260504040108 | 9 | 208 | 0.0 | 1.6 | 0.00 | 0.00 | 0.00 | 56 | 1013.6 |
| 20260504035014 | 8 | 211 | 0.0 | 3.2 | 0.00 | 0.00 | 0.00 | 57 | 1013.5 |
| 20260504034000 | 8 | 0.0 | 0.0 | 0.00 | 0.00 | 0.00 | 61 | 1013.4 | |
| 20260504033005 | 8 | 0.0 | 0.0 | 0.00 | 0.00 | 0.00 | 60 | 1013.4 | |
| 20260504031931 | 8 | 0.0 | 0.0 | 0.00 | 0.00 | 0.00 | 58 | 1013.5 | |
| 20260504030918 | 8 | 0.0 | 0.0 | 0.00 | 0.00 | 0.00 | 57 | 1013.4 | |
| 20260504025904 | 8 | 0.0 | 0.0 | 0.00 | 0.00 | 0.00 | 56 | 1013.3 | |
| 20260504024851 | 10 | 207 | 1.6 | 1.6 | 0.00 | 0.00 | 0.00 | 54 | 1013.5 |
| 20260504023837 | 10 | 214 | 3.2 | 3.2 | 0.00 | 0.00 | 0.00 | 51 | 1013.5 |
| 20260504022843 | 10 | 207 | 1.6 | 3.2 | 0.00 | 0.00 | 0.00 | 52 | 1013.3 |
| 20260504021808 | 10 | 206 | 0.0 | 1.6 | 0.00 | 0.00 | 0.00 | 52 | 1013.4 |
| 20260504020835 | 10 | 208 | 0.0 | 1.6 | 0.00 | 0.00 | 0.00 | 50 | 1013.4 |
| 20260504015741 | 10 | 210 | 0.0 | 1.6 | 0.00 | 0.00 | 0.00 | 50 | 1013.2 |
| 20260504014727 | 11 | 213 | 0.0 | 1.6 | 0.00 | 0.00 | 0.00 | 47 | 1013.4 |
| 20260504013713 | 11 | 212 | 1.6 | 3.2 | 0.00 | 0.00 | 0.00 | 45 | 1012.9 |
| 20260504012700 | 11 | 204 | 0.0 | 1.6 | 0.00 | 0.00 | 0.00 | 45 | 1012.8 |
| 20260504011646 | 11 | 230 | 4.8 | 4.8 | 0.00 | 0.00 | 0.00 | 43 | 1012.7 |
| 20260504011200 | 12 | 205 | 1.6 | 3.2 | 0.00 | 0.00 | 0.00 | 44 | 1012.9 |
| 20260504010126 | 12 | 210 | 1.6 | 3.2 | 0.00 | 0.00 | 0.00 | 43 | 1012.7 |
| 20260504005112 | 12 | 229 | 3.2 | 4.8 | 0.00 | 0.00 | 0.00 | 42 | 1012.5 |
| 20260504004118 | 12 | 207 | 0.0 | 3.2 | 0.00 | 0.00 | 0.00 | 41 | 1012.4 |
| 20260504003043 | 13 | 215 | 1.6 | 3.2 | 0.00 | 0.00 | 0.00 | 40 | 1012.4 |
| 20260504002050 | 13 | 206 | 0.0 | 4.8 | 0.00 | 0.00 | 0.00 | 39 | 1012.3 |
| 20260504001017 | 13 | 245 | 6.4 | 9.7 | 0.00 | 0.00 | 0.00 | 38 | 1012.2 |
| 20260504000003 | 13 | 254 | 9.7 | 11.3 | 0.00 | 0.00 | 0.00 | 37 | 1011.9 |
| 20260503235010 | 14 | 215 | 1.6 | 11.3 | 0.00 | 0.00 | 0.00 | 36 | 1012.2 |
| 20260503233936 | 15 | 288 | 8.0 | 11.3 | 0.00 | 0.00 | 0.00 | 35 | 1011.9 |
| 20260503232922 | 15 | 247 | 9.7 | 16.1 | 0.00 | 0.00 | 0.00 | 35 | 1011.8 |
| 20260503231909 | 15 | 249 | 14.5 | 17.7 | 0.00 | 0.00 | 0.00 | 34 | 1011.7 |
| 20260503230915 | 15 | 244 | 8.0 | 17.7 | 0.00 | 0.00 | 0.00 | 34 | 1011.7 |
| 20260503225841 | 15 | 348 | 11.3 | 17.7 | 0.00 | 0.00 | 0.00 | 34 | 1011.6 |
| 20260503224828 | 15 | 227 | 12.9 | 25.7 | 0.00 | 0.00 | 0.00 | 33 | 1011.7 |
| 20260503223814 | 15 | 248 | 16.1 | 20.9 | 0.00 | 0.00 | 0.00 | 33 | 1011.6 |
| 20260503222821 | 15 | 242 | 14.5 | 22.5 | 0.00 | 0.00 | 0.00 | 33 | 1011.6 |
| 20260503221747 | 15 | 272 | 14.5 | 33.8 | 0.00 | 0.00 | 0.00 | 32 | 1011.8 |
| 20260503220733 | 15 | 278 | 9.7 | 25.7 | 0.00 | 0.00 | 0.00 | 32 | 1011.6 |
| 20260503215719 | 15 | 299 | 12.9 | 16.1 | 0.00 | 0.00 | 0.00 | 31 | 1011.5 |
| 20260503214726 | 15 | 246 | 4.8 | 9.7 | 0.00 | 0.00 | 0.00 | 32 | 1011.4 |
| 20260503213652 | 15 | 316 | 16.1 | 22.5 | 0.00 | 0.00 | 0.00 | 32 | 1011.5 |
| 20260503212638 | 15 | 352 | 12.9 | 24.1 | 0.00 | 0.00 | 0.00 | 32 | 1011.4 |
| 20260503211646 | 15 | 331 | 12.9 | 20.9 | 0.00 | 0.00 | 0.00 | 32 | 1011.6 |
| 20260503211118 | 15 | 201 | 11.3 | 29.0 | 0.00 | 0.00 | 0.00 | 33 | 1011.6 |
| 20260503210105 | 15 | 267 | 9.7 | 22.5 | 0.00 | 0.00 | 0.00 | 33 | 1011.6 |
| 20260503205051 | 15 | 241 | 16.1 | 22.5 | 0.00 | 0.00 | 0.00 | 32 | 1011.5 |
| 20260503204037 | 14 | 301 | 9.7 | 17.7 | 0.00 | 0.00 | 0.00 | 34 | 1011.6 |
| 20260503203024 | 14 | 293 | 17.7 | 24.1 | 0.00 | 0.00 | 0.00 | 33 | 1011.9 |
| 20260503202010 | 13 | 234 | 3.2 | 24.1 | 0.00 | 0.00 | 0.00 | 35 | 1011.8 |
| 20260503200956 | 13 | 291 | 16.1 | 25.7 | 0.00 | 0.00 | 0.00 | 34 | 1011.8 |
| 20260503200004 | 14 | 254 | 17.7 | 24.1 | 0.00 | 0.00 | 0.00 | 33 | 1011.9 |
| 20260503194929 | 13 | 267 | 12.9 | 22.5 | 0.00 | 0.00 | 0.00 | 34 | 1012.2 |
| 20260503193916 | 13 | 22 | 9.7 | 16.1 | 0.00 | 0.00 | 0.00 | 34 | 1012.1 |
| 20260503192903 | 13 | 261 | 17.7 | 33.8 | 0.00 | 0.00 | 0.00 | 34 | 1012.2 |
| 20260503191849 | 13 | 256 | 19.3 | 29.0 | 0.00 | 0.00 | 0.00 | 34 | 1012.3 |
| 20260503190835 | 13 | 254 | 16.1 | 29.0 | 0.00 | 0.00 | 0.00 | 34 | 1012.3 |
| 20260503185823 | 13 | 332 | 16.1 | 27.4 | 0.00 | 0.00 | 0.00 | 34 | 1012.7 |
| 20260503184808 | 13 | 306 | 14.5 | 24.1 | 0.00 | 0.00 | 0.00 | 34 | 1012.4 |
| 20260503183754 | 12 | 279 | 11.3 | 20.9 | 0.00 | 0.00 | 0.00 | 35 | 1012.6 |
| 20260503182740 | 13 | 351 | 16.1 | 17.7 | 0.00 | 0.00 | 0.00 | 35 | 1012.7 |
| 20260503181725 | 13 | 352 | 14.5 | 22.5 | 0.00 | 0.00 | 0.00 | 37 | 1012.7 |
| 20260503180711 | 12 | 310 | 12.9 | 22.5 | 0.00 | 0.00 | 0.00 | 36 | 1012.4 |
| 20260503175658 | 12 | 261 | 6.4 | 22.5 | 0.00 | 0.00 | 0.00 | 35 | 1012.4 |
| 20260503175228 | 11 | 295 | 14.5 | 22.5 | 0.00 | 0.00 | 0.00 | 35 | 1012.8 |
| 20260503174134 | 11 | 267 | 12.9 | 24.1 | 0.00 | 0.00 | 0.00 | 35 | 1012.9 |
| 20260503173120 | 11 | 31 | 12.9 | 30.6 | 0.00 | 0.00 | 0.00 | 36 | 1013.2 |
| 20260503172106 | 11 | 285 | 12.9 | 20.9 | 0.00 | 0.00 | 0.00 | 37 | 1013.0 |
| 20260503171052 | 11 | 53 | 12.9 | 24.1 | 0.00 | 0.00 | 0.00 | 38 | 1013.0 |